Погода в Черчилл-Фоллс

Канада     53°32′12″N   64°00′01″W
темп.,
°C
ветер,
м/с
пор.,
м/с
влажн.,
%
обл.,
%
осадки,
мм/ч
давл.,
гПа
погр.,
м
23 января, сб
сб2323:00−16сз4796100 1.0 1013308
02:00−8с51294100 2.7 1004605
05:00−8с3996100 1.5 1007419
08:00−5св61393100 2.4 1005876
11:00−3св81588100 1.3 10021200
14:00−2св91685100 1.6 9991432
17:00−4всв61484100 0.3 9941005
20:00−6всв51389100 0.4 997876
24 января, вс
вс2423:00−3св101982100 0.0 9991228
02:00−3св91884100 0.0 10011154
05:00−3св91984100 0.1 10011284
08:00−3св81584100 0.5 1002985
11:00−3св81783100 0.0 10041332
14:00−3ссв91685100 0.2 10041465
17:00−4ссв81686100 0.1 10061239
20:00−5ссв6149099 0.1 1006975
25 января, пн
пн2523:00−5ссв7168698 0.1 10071033
02:00−7ссв6158889 0.1 1007918
05:00−7с8168899 0.1 1007971
08:00−6ссв7168699 0.0 1011882
11:00−3св71384100 0.0 10121088
14:00−2св71182100 0.2 10141196
17:00−5св51289100 0.1 1017678
20:00−10ссв4119194 0.1 1020285
26 января, вт
вт2623:00−11ссв3993100 0.0 1020210
02:00−13с239448 0.0 102336
05:00−15сз239377 0.0 102426
08:00−17сз339139 0.0 102647
11:00−13сз369213 0.0 1027275
14:00−13сз369255 0.0 1026360
17:00−17сз339693 0.0 102748
20:00−19сз239861 0.0 102949
27 января, ср
ср2723:00−21зсз33988 0.0 103065
02:00−20сз339786 0.0 102248
05:00−22зсз339830 0.0 103161
08:00−23зсз359839 0.0 103288
11:00−17сз35924 0.0 1031259
14:00−17сз369240 0.0 1022351
17:00−18сз339635 0.0 103149
20:00−21зсз339836 0.0 103454